Wetterdaten: Montag, 18.01.2016
Datum Zeit Temp. A. Feuchte A. Luftdruck Regen Wind Richtung Richtung Sonnenschein ET UV Solar Taupunkt Windchill Windben Empfang
18.01.2016 00:00 -2,8 C 87 % 1023,8 hPa 0,0 l/m 7,3 km/h (2 Bft) W 267 0 min 0,000 mm 0,0 UV-I 0 W/m -4,7 C -3,8 C 12,9 km/h (3 Bft) 99,13 %
18.01.2016 00:05 -2,8 C 87 % 1023,8 hPa 0,0 l/m 8,8 km/h (2 Bft) W-SW 243 0 min 0,000 mm 0,0 UV-I 0 W/m -4,7 C -5,4 C 22,5 km/h (4 Bft) 100,00 %
18.01.2016 00:10 -2,8 C 87 % 1023,8 hPa 0,0 l/m 7,2 km/h (2 Bft) W-NW 290 0 min 0,000 mm 0,0 UV-I 0 W/m -4,7 C -3,7 C 14,5 km/h (3 Bft) 99,19 %
18.01.2016 00:15 -2,8 C 87 % 1023,8 hPa 0,0 l/m 7,0 km/h (2 Bft) W 272 0 min 0,000 mm 0,0 UV-I 0 W/m -4,7 C -3,5 C 16,1 km/h (3 Bft) 98,26 %
18.01.2016 00:20 -2,8 C 87 % 1023,8 hPa 0,0 l/m 6,0 km/h (2 Bft) W-SW 251 0 min 0,000 mm 0,0 UV-I 0 W/m -4,7 C -2,8 C 11,3 km/h (2 Bft) 100,00 %
18.01.2016 00:25 -2,8 C 87 % 1023,9 hPa 0,0 l/m 7,7 km/h (2 Bft) W 273 0 min 0,000 mm 0,0 UV-I 0 W/m -4,7 C -4,3 C 14,5 km/h (3 Bft) 96,69 %
18.01.2016 00:30 -2,8 C 87 % 1023,9 hPa 0,0 l/m 8,8 km/h (2 Bft) W 279 0 min 0,000 mm 0,0 UV-I 0 W/m -4,7 C -5,4 C 14,5 km/h (3 Bft) 98,17 %
18.01.2016 00:35 -2,8 C 87 % 1023,9 hPa 0,0 l/m 8,0 km/h (2 Bft) W 276 0 min 0,000 mm 0,0 UV-I 0 W/m -4,7 C -4,6 C 12,9 km/h (3 Bft) 97,44 %
18.01.2016 00:40 -2,8 C 87 % 1023,8 hPa 0,0 l/m 7,9 km/h (2 Bft) W 269 0 min 0,000 mm 0,0 UV-I 0 W/m -4,7 C -4,5 C 12,9 km/h (3 Bft) 96,69 %
18.01.2016 00:45 -2,8 C 88 % 1023,9 hPa 0,0 l/m 7,1 km/h (2 Bft) W 260 0 min 0,000 mm 0,0 UV-I 0 W/m -4,5 C -3,6 C 14,5 km/h (3 Bft) 97,37 %
18.01.2016 00:50 -2,9 C 88 % 1023,9 hPa 0,0 l/m 7,9 km/h (2 Bft) W-SW 252 0 min 0,000 mm 0,0 UV-I 0 W/m -4,6 C -4,6 C 14,5 km/h (3 Bft) 97,52 %
18.01.2016 00:55 -2,9 C 88 % 1023,9 hPa 0,0 l/m 9,4 km/h (2 Bft) W-SW 246 0 min 0,000 mm 0,0 UV-I 0 W/m -4,6 C -6,1 C 17,7 km/h (3 Bft) 96,69 %
18.01.2016 01:00 -2,9 C 88 % 1023,8 hPa 0,0 l/m 10,9 km/h (2 Bft) W-SW 256 0 min 0,000 mm 0,0 UV-I 0 W/m -4,6 C -7,4 C 19,3 km/h (3 Bft) 100,00 %
18.01.2016 01:05 -2,9 C 88 % 1023,7 hPa 0,0 l/m 7,8 km/h (2 Bft) W 259 0 min 0,000 mm 0,0 UV-I 0 W/m -4,6 C -4,5 C 12,9 km/h (3 Bft) 99,13 %
18.01.2016 01:10 -3,0 C 88 % 1023,7 hPa 0,0 l/m 7,9 km/h (2 Bft) W-SW 247 0 min 0,000 mm 0,0 UV-I 0 W/m -4,7 C -4,7 C 12,9 km/h (3 Bft) 98,26 %
18.01.2016 01:15 -3,1 C 88 % 1023,7 hPa 0,0 l/m 6,3 km/h (2 Bft) W 279 0 min 0,000 mm 0,0 UV-I 0 W/m -4,8 C -3,1 C 12,9 km/h (3 Bft) 100,00 %
18.01.2016 01:20 -3,1 C 88 % 1023,7 hPa 0,0 l/m 7,1 km/h (2 Bft) W-SW 254 0 min 0,000 mm 0,0 UV-I 0 W/m -4,8 C -3,9 C 12,9 km/h (3 Bft) 100,00 %
18.01.2016 01:25 -3,1 C 88 % 1023,7 hPa 0,0 l/m 8,8 km/h (2 Bft) W-SW 243 0 min 0,000 mm 0,0 UV-I 0 W/m -4,8 C -5,7 C 16,1 km/h (3 Bft) 100,00 %
18.01.2016 01:30 -3,1 C 88 % 1023,7 hPa 0,0 l/m 8,9 km/h (2 Bft) S 182 0 min 0,000 mm 0,0 UV-I 0 W/m -4,8 C -5,8 C 16,1 km/h (3 Bft) 100,00 %
18.01.2016 01:35 -3,1 C 88 % 1023,6 hPa 0,0 l/m 10,1 km/h (2 Bft) S-SW 207 0 min 0,000 mm 0,0 UV-I 0 W/m -4,8 C -7,0 C 20,9 km/h (4 Bft) 99,15 %
18.01.2016 01:40 -3,1 C 88 % 1023,7 hPa 0,0 l/m 8,7 km/h (2 Bft) W-SW 247 0 min 0,000 mm 0,0 UV-I 0 W/m -4,8 C -5,6 C 16,1 km/h (3 Bft) 99,19 %
18.01.2016 01:45 -3,2 C 88 % 1023,7 hPa 0,0 l/m 5,8 km/h (2 Bft) W 276 0 min 0,000 mm 0,0 UV-I 0 W/m -4,9 C -3,2 C 12,9 km/h (3 Bft) 99,13 %
18.01.2016 01:50 -3,2 C 88 % 1023,7 hPa 0,0 l/m 6,3 km/h (2 Bft) W-SW 242 0 min 0,000 mm 0,0 UV-I 0 W/m -4,9 C -3,2 C 12,9 km/h (3 Bft) 99,19 %
18.01.2016 01:55 -3,2 C 88 % 1023,7 hPa 0,0 l/m 6,5 km/h (2 Bft) W-SW 240 0 min 0,000 mm 0,0 UV-I 0 W/m -4,9 C -3,3 C 11,3 km/h (2 Bft) 100,00 %
18.01.2016 02:00 -3,2 C 88 % 1023,7 hPa 0,0 l/m 6,0 km/h (2 Bft) W 261 0 min 0,000 mm 0,0 UV-I 0 W/m -4,9 C -3,2 C 12,9 km/h (3 Bft) 99,03 %
18.01.2016 02:05 -3,2 C 88 % 1023,6 hPa 0,0 l/m 4,8 km/h (1 Bft) W-SW 244 0 min 0,000 mm 0,0 UV-I 0 W/m -4,9 C -3,2 C 9,7 km/h (2 Bft) 99,17 %
18.01.2016 02:10 -3,2 C 88 % 1023,7 hPa 0,0 l/m 4,4 km/h (1 Bft) S-SW 209 0 min 0,000 mm 0,0 UV-I 0 W/m -4,9 C -3,2 C 8,0 km/h (2 Bft) 100,00 %
18.01.2016 02:15 -3,2 C 88 % 1023,7 hPa 0,0 l/m 3,3 km/h (1 Bft) W 259 0 min 0,000 mm 0,0 UV-I 0 W/m -4,9 C -3,2 C 6,4 km/h (2 Bft) 97,39 %
18.01.2016 02:20 -3,2 C 88 % 1023,7 hPa 0,0 l/m 4,2 km/h (1 Bft) W-SW 247 0 min 0,000 mm 0,0 UV-I 0 W/m -4,9 C -3,2 C 9,7 km/h (2 Bft) 100,00 %
18.01.2016 02:25 -3,3 C 88 % 1023,8 hPa 0,0 l/m 4,8 km/h (1 Bft) W-SW 250 0 min 0,000 mm 0,0 UV-I 0 W/m -5,0 C -3,3 C 6,4 km/h (2 Bft) 98,11 %
18.01.2016 02:30 -3,3 C 88 % 1023,9 hPa 0,0 l/m 4,2 km/h (1 Bft) W 264 0 min 0,000 mm 0,0 UV-I 0 W/m -5,0 C -3,3 C 6,4 km/h (2 Bft) 98,37 %
18.01.2016 02:35 -3,3 C 88 % 1024,0 hPa 0,0 l/m 7,5 km/h (2 Bft) S-SW 210 0 min 0,000 mm 0,0 UV-I 0 W/m -5,0 C -4,6 C 12,9 km/h (3 Bft) 97,30 %
18.01.2016 02:40 -3,3 C 88 % 1023,9 hPa 0,0 l/m 6,4 km/h (2 Bft) W 261 0 min 0,000 mm 0,0 UV-I 0 W/m -5,0 C -3,2 C 12,9 km/h (3 Bft) 97,58 %
18.01.2016 02:45 -3,3 C 88 % 1023,9 hPa 0,0 l/m 6,9 km/h (2 Bft) W-SW 249 0 min 0,000 mm 0,0 UV-I 0 W/m -5,0 C -3,9 C 11,3 km/h (2 Bft) 96,40 %
18.01.2016 02:50 -3,4 C 88 % 1023,8 hPa 0,0 l/m 5,5 km/h (1 Bft) S-SW 211 0 min 0,000 mm 0,0 UV-I 0 W/m -5,1 C -3,4 C 11,3 km/h (2 Bft) 96,69 %
18.01.2016 02:55 -3,4 C 88 % 1023,8 hPa 0,0 l/m 4,9 km/h (1 Bft) SW 236 0 min 0,000 mm 0,0 UV-I 0 W/m -5,1 C -3,4 C 9,7 km/h (2 Bft) 98,26 %
18.01.2016 03:00 -3,5 C 88 % 1023,8 hPa 0,0 l/m 5,3 km/h (1 Bft) SW 219 0 min 0,000 mm 0,0 UV-I 0 W/m -5,2 C -3,5 C 8,0 km/h (2 Bft) 95,73 %
18.01.2016 03:05 -3,6 C 88 % 1023,7 hPa 0,0 l/m 6,5 km/h (2 Bft) W-SW 257 0 min 0,000 mm 0,0 UV-I 0 W/m -5,3 C -3,7 C 11,3 km/h (2 Bft) 100,00 %
18.01.2016 03:10 -3,6 C 88 % 1023,8 hPa 0,0 l/m 4,9 km/h (1 Bft) W-SW 254 0 min 0,000 mm 0,0 UV-I 0 W/m -5,3 C -3,6 C 6,4 km/h (2 Bft) 99,18 %
18.01.2016 03:15 -3,7 C 89 % 1023,7 hPa 0,0 l/m 6,0 km/h (2 Bft) W 262 0 min 0,000 mm 0,0 UV-I 0 W/m -5,2 C -3,7 C 12,9 km/h (3 Bft) 98,25 %
18.01.2016 03:20 -3,7 C 89 % 1023,7 hPa 0,0 l/m 7,3 km/h (2 Bft) W-SW 253 0 min 0,000 mm 0,0 UV-I 0 W/m -5,2 C -4,7 C 12,9 km/h (3 Bft) 100,00 %
18.01.2016 03:25 -3,7 C 89 % 1023,6 hPa 0,0 l/m 7,9 km/h (2 Bft) W-SW 254 0 min 0,000 mm 0,0 UV-I 0 W/m -5,2 C -5,4 C 12,9 km/h (3 Bft) 98,37 %
18.01.2016 03:30 -3,8 C 89 % 1023,7 hPa 0,0 l/m 7,4 km/h (2 Bft) W-SW 248 0 min 0,000 mm 0,0 UV-I 0 W/m -5,3 C -5,0 C 11,3 km/h (2 Bft) 99,17 %
18.01.2016 03:35 -3,9 C 89 % 1023,7 hPa 0,0 l/m 7,1 km/h (2 Bft) SW 232 0 min 0,000 mm 0,0 UV-I 0 W/m -5,4 C -4,7 C 12,9 km/h (3 Bft) 99,08 %
18.01.2016 03:40 -3,9 C 89 % 1023,6 hPa 0,0 l/m 7,5 km/h (2 Bft) W-SW 255 0 min 0,000 mm 0,0 UV-I 0 W/m -5,4 C -5,2 C 12,9 km/h (3 Bft) 98,32 %
18.01.2016 03:45 -3,9 C 89 % 1023,6 hPa 0,0 l/m 8,3 km/h (2 Bft) W-SW 253 0 min 0,000 mm 0,0 UV-I 0 W/m -5,4 C -6,1 C 12,9 km/h (3 Bft) 99,11 %
18.01.2016 03:50 -3,9 C 89 % 1023,6 hPa 0,0 l/m 6,7 km/h (2 Bft) W-SW 254 0 min 0,000 mm 0,0 UV-I 0 W/m -5,4 C -4,2 C 11,3 km/h (2 Bft) 99,22 %
18.01.2016 03:55 -4,0 C 89 % 1023,6 hPa 0,0 l/m 7,9 km/h (2 Bft) W-SW 253 0 min 0,000 mm 0,0 UV-I 0 W/m -5,5 C -5,7 C 12,9 km/h (3 Bft) 100,00 %
18.01.2016 04:00 -4,1 C 90 % 1023,5 hPa 0,0 l/m 7,1 km/h (2 Bft) W 267 0 min 0,000 mm 0,0 UV-I 0 W/m -5,5 C -4,9 C 12,9 km/h (3 Bft) 100,00 %
18.01.2016 04:05 -4,2 C 90 % 1023,6 hPa 0,0 l/m 4,6 km/h (1 Bft) W-SW 246 0 min 0,000 mm 0,0 UV-I 0 W/m -5,6 C -4,2 C 9,7 km/h (2 Bft) 98,70 %
18.01.2016 04:10 -4,3 C 90 % 1023,6 hPa 0,0 l/m 6,2 km/h (2 Bft) SW 233 0 min 0,000 mm 0,0 UV-I 0 W/m -5,7 C -4,3 C 11,3 km/h (2 Bft) 99,13 %
18.01.2016 04:15 -4,4 C 90 % 1023,5 hPa 0,0 l/m 6,5 km/h (2 Bft) W-SW 248 0 min 0,000 mm 0,0 UV-I 0 W/m -5,8 C -4,5 C 9,7 km/h (2 Bft) 100,00 %
18.01.2016 04:20 -4,4 C 91 % 1023,6 hPa 0,0 l/m 7,8 km/h (2 Bft) SW 235 0 min 0,000 mm 0,0 UV-I 0 W/m -5,6 C -6,0 C 12,9 km/h (3 Bft) 99,12 %
18.01.2016 04:25 -4,4 C 91 % 1023,6 hPa 0,0 l/m 7,2 km/h (2 Bft) W-SW 250 0 min 0,000 mm 0,0 UV-I 0 W/m -5,6 C -5,3 C 12,9 km/h (3 Bft) 98,35 %
18.01.2016 04:30 -4,5 C 90 % 1023,7 hPa 0,0 l/m 7,2 km/h (2 Bft) SW 221 0 min 0,000 mm 0,0 UV-I 0 W/m -5,9 C -5,4 C 11,3 km/h (2 Bft) 100,00 %
18.01.2016 04:35 -4,7 C 90 % 1023,6 hPa 0,0 l/m 6,5 km/h (2 Bft) SW 234 0 min 0,000 mm 0,0 UV-I 0 W/m -6,1 C -4,8 C 9,7 km/h (2 Bft) 97,62 %
18.01.2016 04:40 -4,8 C 90 % 1023,7 hPa 0,0 l/m 5,6 km/h (1 Bft) W-SW 239 0 min 0,000 mm 0,0 UV-I 0 W/m -6,2 C -4,8 C 8,0 km/h (2 Bft) 97,58 %
18.01.2016 04:45 -4,9 C 91 % 1023,7 hPa 0,0 l/m 6,4 km/h (2 Bft) SW 231 0 min 0,000 mm 0,0 UV-I 0 W/m -6,1 C -4,8 C 9,7 km/h (2 Bft) 96,49 %
18.01.2016 04:50 -5,1 C 91 % 1023,8 hPa 0,0 l/m 6,3 km/h (2 Bft) S-SW 212 0 min 0,000 mm 0,0 UV-I 0 W/m -6,3 C -5,1 C 9,7 km/h (2 Bft) 98,17 %
18.01.2016 04:55 -5,1 C 92 % 1023,8 hPa 0,0 l/m 6,5 km/h (2 Bft) W-SW 247 0 min 0,000 mm 0,0 UV-I 0 W/m -6,2 C -5,2 C 11,3 km/h (2 Bft) 95,76 %
18.01.2016 05:00 -5,1 C 91 % 1023,7 hPa 0,0 l/m 6,8 km/h (2 Bft) SW 230 0 min 0,000 mm 0,0 UV-I 0 W/m -6,3 C -5,6 C 9,7 km/h (2 Bft) 97,56 %
18.01.2016 05:05 -5,1 C 92 % 1023,7 hPa 0,0 l/m 6,5 km/h (2 Bft) W-SW 239 0 min 0,000 mm 0,0 UV-I 0 W/m -6,2 C -5,2 C 9,7 km/h (2 Bft) 95,41 %
18.01.2016 05:10 -5,1 C 92 % 1023,7 hPa 0,0 l/m 6,1 km/h (2 Bft) SW 230 0 min 0,000 mm 0,0 UV-I 0 W/m -6,2 C -5,1 C 9,7 km/h (2 Bft) 97,62 %
18.01.2016 05:15 -5,0 C 91 % 1023,7 hPa 0,0 l/m 6,2 km/h (2 Bft) S-SW 202 0 min 0,000 mm 0,0 UV-I 0 W/m -6,2 C -5,0 C 11,3 km/h (2 Bft) 96,52 %
18.01.2016 05:20 -5,0 C 91 % 1023,6 hPa 0,0 l/m 5,4 km/h (1 Bft) SW 224 0 min 0,000 mm 0,0 UV-I 0 W/m -6,2 C -5,0 C 9,7 km/h (2 Bft) 100,00 %
18.01.2016 05:25 -5,1 C 91 % 1023,6 hPa 0,0 l/m 6,3 km/h (2 Bft) SW 234 0 min 0,000 mm 0,0 UV-I 0 W/m -6,3 C -5,1 C 11,3 km/h (2 Bft) 97,37 %
18.01.2016 05:30 -5,1 C 91 % 1023,7 hPa 0,0 l/m 7,5 km/h (2 Bft) W-SW 246 0 min 0,000 mm 0,0 UV-I 0 W/m -6,3 C -6,4 C 11,3 km/h (2 Bft) 100,00 %
18.01.2016 05:35 -5,1 C 91 % 1023,7 hPa 0,0 l/m 7,2 km/h (2 Bft) SW 232 0 min 0,000 mm 0,0 UV-I 0 W/m -6,3 C -6,1 C 11,3 km/h (2 Bft) 100,00 %
18.01.2016 05:40 -5,0 C 91 % 1023,7 hPa 0,0 l/m 6,8 km/h (2 Bft) W-SW 244 0 min 0,000 mm 0,0 UV-I 0 W/m -6,2 C -5,5 C 12,9 km/h (3 Bft) 99,17 %
18.01.2016 05:45 -4,9 C 91 % 1023,7 hPa 0,0 l/m 6,7 km/h (2 Bft) W-SW 240 0 min 0,000 mm 0,0 UV-I 0 W/m -6,1 C -5,2 C 12,9 km/h (3 Bft) 98,31 %
18.01.2016 05:50 -4,9 C 91 % 1023,7 hPa 0,0 l/m 7,1 km/h (2 Bft) W-SW 249 0 min 0,000 mm 0,0 UV-I 0 W/m -6,1 C -5,7 C 12,9 km/h (3 Bft) 100,00 %
18.01.2016 05:55 -4,9 C 91 % 1023,7 hPa 0,0 l/m 5,5 km/h (1 Bft) W-SW 251 0 min 0,000 mm 0,0 UV-I 0 W/m -6,1 C -4,9 C 11,3 km/h (2 Bft) 99,17 %
18.01.2016 06:00 -5,1 C 91 % 1023,7 hPa 0,0 l/m 3,5 km/h (1 Bft) W-SW 238 0 min 0,000 mm 0,0 UV-I 0 W/m -6,3 C -5,1 C 4,8 km/h (1 Bft) 100,00 %
18.01.2016 06:05 -5,2 C 91 % 1023,7 hPa 0,0 l/m 3,5 km/h (1 Bft) W 264 0 min 0,000 mm 0,0 UV-I 0 W/m -6,4 C -5,2 C 4,8 km/h (1 Bft) 99,10 %
18.01.2016 06:10 -5,3 C 91 % 1023,7 hPa 0,0 l/m 2,8 km/h (1 Bft) W 264 0 min 0,000 mm 0,0 UV-I 0 W/m -6,5 C -5,3 C 4,8 km/h (1 Bft) 99,21 %
18.01.2016 06:15 -5,5 C 91 % 1023,7 hPa 0,0 l/m 2,5 km/h (1 Bft) W-SW 256 0 min 0,000 mm 0,0 UV-I 0 W/m -6,7 C -5,5 C 4,8 km/h (1 Bft) 98,21 %
18.01.2016 06:20 -5,7 C 91 % 1023,7 hPa 0,0 l/m 2,3 km/h (1 Bft) W-SW 256 0 min 0,000 mm 0,0 UV-I 0 W/m -6,9 C -5,7 C 4,8 km/h (1 Bft) 98,29 %
18.01.2016 06:25 -5,9 C 92 % 1023,6 hPa 0,0 l/m 2,4 km/h (1 Bft) W-SW 256 0 min 0,000 mm 0,0 UV-I 0 W/m -7,0 C -5,9 C 4,8 km/h (1 Bft) 99,17 %
18.01.2016 06:30 -6,0 C 92 % 1023,6 hPa 0,0 l/m 2,8 km/h (1 Bft) W-SW 256 0 min 0,000 mm 0,0 UV-I 0 W/m -7,1 C -6,0 C 4,8 km/h (1 Bft) 99,15 %
18.01.2016 06:35 -6,3 C 92 % 1023,5 hPa 0,0 l/m 2,6 km/h (1 Bft) W-SW 246 0 min 0,000 mm 0,0 UV-I 0 W/m -7,4 C -6,3 C 4,8 km/h (1 Bft) 99,11 %
18.01.2016 06:40 -6,6 C 92 % 1023,6 hPa 0,0 l/m 2,5 km/h (1 Bft) W-SW 246 0 min 0,000 mm 0,0 UV-I 0 W/m -7,7 C -6,6 C 3,2 km/h (1 Bft) 99,13 %
18.01.2016 06:45 -6,8 C 93 % 1023,5 hPa 0,0 l/m 2,3 km/h (1 Bft) W-SW 245 0 min 0,000 mm 0,0 UV-I 0 W/m -7,7 C -6,8 C 3,2 km/h (1 Bft) 96,75 %
18.01.2016 06:50 -6,9 C 93 % 1023,6 hPa 0,0 l/m 1,7 km/h (1 Bft) SW 230 0 min 0,000 mm 0,0 UV-I 0 W/m -7,8 C -6,9 C 3,2 km/h (1 Bft) 96,43 %
18.01.2016 06:55 -6,9 C 93 % 1023,6 hPa 0,0 l/m 1,9 km/h (1 Bft) SW 229 0 min 0,000 mm 0,0 UV-I 0 W/m -7,8 C -6,9 C 4,8 km/h (1 Bft) 97,46 %
18.01.2016 07:00 -6,9 C 93 % 1023,6 hPa 0,0 l/m 3,6 km/h (1 Bft) S-SW 197 0 min 0,000 mm 0,0 UV-I 0 W/m -7,8 C -6,9 C 4,8 km/h (1 Bft) 95,61 %
18.01.2016 07:05 -6,8 C 94 % 1023,7 hPa 0,0 l/m 3,6 km/h (1 Bft) S-SW 196 0 min 0,000 mm 0,0 UV-I 0 W/m -7,6 C -6,8 C 4,8 km/h (1 Bft) 97,52 %
18.01.2016 07:10 -6,8 C 94 % 1023,7 hPa 0,0 l/m 4,0 km/h (1 Bft) S 186 0 min 0,000 mm 0,0 UV-I 0 W/m -7,6 C -6,8 C 4,8 km/h (1 Bft) 97,32 %
18.01.2016 07:15 -7,1 C 93 % 1023,6 hPa 0,0 l/m 3,6 km/h (1 Bft) S 184 0 min 0,000 mm 0,0 UV-I 0 W/m -8,0 C -7,1 C 4,8 km/h (1 Bft) 98,39 %
18.01.2016 07:20 -7,1 C 93 % 1023,7 hPa 0,0 l/m 2,3 km/h (1 Bft) S 184 0 min 0,000 mm 0,0 UV-I 0 W/m -8,0 C -7,1 C 4,8 km/h (1 Bft) 98,35 %
18.01.2016 07:25 -7,1 C 94 % 1023,7 hPa 0,0 l/m 2,5 km/h (1 Bft) S 184 0 min 0,000 mm 0,0 UV-I 0 W/m -7,9 C -7,1 C 4,8 km/h (1 Bft) 99,12 %
18.01.2016 07:30 -7,1 C 94 % 1023,7 hPa 0,0 l/m 3,6 km/h (1 Bft) S 184 0 min 0,000 mm 0,0 UV-I 0 W/m -7,9 C -7,1 C 4,8 km/h (1 Bft) 99,11 %
18.01.2016 07:35 -7,2 C 94 % 1023,7 hPa 0,0 l/m 3,7 km/h (1 Bft) S-SW 198 0 min 0,000 mm 0,0 UV-I 0 W/m -8,0 C -7,2 C 6,4 km/h (2 Bft) 99,15 %
18.01.2016 07:40 -7,4 C 93 % 1023,6 hPa 0,0 l/m 2,4 km/h (1 Bft) S-SW 196 0 min 0,000 mm 0,0 UV-I 0 W/m -8,3 C -7,4 C 4,8 km/h (1 Bft) 100,00 %
18.01.2016 07:45 -7,6 C 93 % 1023,6 hPa 0,0 l/m 3,1 km/h (1 Bft) S-SW 196 0 min 0,000 mm 0,0 UV-I 1 W/m -8,5 C -7,6 C 4,8 km/h (1 Bft) 98,26 %
18.01.2016 07:50 -7,6 C 94 % 1023,6 hPa 0,0 l/m 2,2 km/h (1 Bft) S-SW 196 0 min 0,000 mm 0,0 UV-I 5 W/m -8,4 C -7,6 C 3,2 km/h (1 Bft) 97,50 %
18.01.2016 07:55 -7,5 C 94 % 1023,6 hPa 0,0 l/m 2,4 km/h (1 Bft) S-SW 196 0 min 0,000 mm 0,0 UV-I 6 W/m -8,3 C -7,5 C 3,2 km/h (1 Bft) 98,31 %
18.01.2016 08:00 -7,5 C 94 % 1023,7 hPa 0,0 l/m 2,9 km/h (1 Bft) S-SW 196 0 min 0,000 mm 0,0 UV-I 8 W/m -8,3 C -7,5 C 4,8 km/h (1 Bft) 100,00 %
18.01.2016 08:05 -7,5 C 94 % 1023,7 hPa 0,0 l/m 3,3 km/h (1 Bft) S-SW 196 0 min 0,000 mm 0,0 UV-I 10 W/m -8,3 C -7,5 C 4,8 km/h (1 Bft) 99,17 %
18.01.2016 08:10 -7,6 C 94 % 1023,6 hPa 0,0 l/m 2,7 km/h (1 Bft) S-SW 196 0 min 0,000 mm 0,0 UV-I 12 W/m -8,4 C -7,6 C 4,8 km/h (1 Bft) 99,17 %
18.01.2016 08:15 -7,6 C 94 % 1023,7 hPa 0,0 l/m 1,7 km/h (1 Bft) S-SW 196 0 min 0,000 mm 0,0 UV-I 16 W/m -8,4 C -7,6 C 3,2 km/h (1 Bft) 100,00 %
18.01.2016 08:20 -7,5 C 94 % 1023,7 hPa 0,0 l/m 1,0 km/h (0 Bft) S-SW 196 0 min 0,000 mm 0,0 UV-I 20 W/m -8,3 C -7,5 C 3,2 km/h (1 Bft) 99,12 %
18.01.2016 08:25 -7,2 C 95 % 1023,7 hPa 0,0 l/m 0,1 km/h (0 Bft) S-SW 196 0 min 0,000 mm 0,0 UV-I 27 W/m -7,9 C -7,2 C 1,6 km/h (1 Bft) 100,00 %
18.01.2016 08:30 -7,2 C 94 % 1023,7 hPa 0,0 l/m 0,3 km/h (0 Bft) S-SW 196 0 min 0,000 mm 0,0 UV-I 36 W/m -8,0 C -7,2 C 3,2 km/h (1 Bft) 98,40 %
18.01.2016 08:35 -7,2 C 94 % 1023,7 hPa 0,0 l/m 0,2 km/h (0 Bft) S-SW 196 0 min 0,000 mm 0,0 UV-I 47 W/m -8,0 C -7,2 C 1,6 km/h (1 Bft) 100,00 %
18.01.2016 08:40 -7,2 C 94 % 1023,7 hPa 0,0 l/m 2,6 km/h (1 Bft) S 176 0 min 0,000 mm 0,0 UV-I 58 W/m -8,0 C -7,2 C 6,4 km/h (2 Bft) 98,31 %
18.01.2016 08:45 -7,0 C 94 % 1023,7 hPa 0,0 l/m 3,3 km/h (1 Bft) S 177 5 min 0,000 mm 0,0 UV-I 69 W/m -7,8 C -7,0 C 4,8 km/h (1 Bft) 98,29 %
18.01.2016 08:50 -6,8 C 94 % 1023,8 hPa 0,0 l/m 2,2 km/h (1 Bft) S 177 5 min 0,000 mm 0,0 UV-I 78 W/m -7,6 C -6,8 C 3,2 km/h (1 Bft) 95,76 %
18.01.2016 08:55 -6,8 C 94 % 1023,7 hPa 0,0 l/m 2,5 km/h (1 Bft) S 177 5 min 0,000 mm 0,0 UV-I 88 W/m -7,6 C -6,8 C 4,8 km/h (1 Bft) 97,56 %
18.01.2016 09:00 -6,8 C 93 % 1023,7 hPa 0,0 l/m 0,3 km/h (0 Bft) S 177 5 min 0,000 mm 0,0 UV-I 99 W/m -7,7 C -6,8 C 1,6 km/h (1 Bft) 96,69 %
18.01.2016 09:05 -6,7 C 94 % 1023,7 hPa 0,0 l/m 0,1 km/h (0 Bft) S 177 5 min 0,000 mm 0,0 UV-I 109 W/m -7,5 C -6,7 C 1,6 km/h (1 Bft) 96,33 %
18.01.2016 09:10 -6,4 C 93 % 1023,7 hPa 0,0 l/m 1,0 km/h (0 Bft) S 177 5 min 0,000 mm 0,0 UV-I 117 W/m -7,3 C -6,4 C 3,2 km/h (1 Bft) 99,19 %
18.01.2016 09:15 -6,3 C 93 % 1023,7 hPa 0,0 l/m 2,9 km/h (1 Bft) S 177 5 min 0,000 mm 0,0 UV-I 131 W/m -7,2 C -6,3 C 4,8 km/h (1 Bft) 98,17 %
18.01.2016 09:20 -6,3 C 93 % 1023,7 hPa 0,0 l/m 2,5 km/h (1 Bft) S 177 5 min 0,000 mm 0,0 UV-I 143 W/m -7,2 C -6,3 C 4,8 km/h (1 Bft) 96,69 %
18.01.2016 09:25 -6,1 C 92 % 1023,6 hPa 0,0 l/m 1,6 km/h (1 Bft) S 178 5 min 0,000 mm 0,0 UV-I 157 W/m -7,2 C -6,1 C 3,2 km/h (1 Bft) 100,00 %
18.01.2016 09:30 -6,1 C 92 % 1023,6 hPa 0,0 l/m 2,2 km/h (1 Bft) S 178 5 min 0,000 mm 0,0 UV-I 167 W/m -7,2 C -6,1 C 3,2 km/h (1 Bft) 100,00 %
18.01.2016 09:35 -5,9 C 92 % 1023,6 hPa 0,0 l/m 3,4 km/h (1 Bft) S 178 5 min 0,000 mm 0,0 UV-I 173 W/m -7,0 C -5,9 C 6,4 km/h (2 Bft) 100,00 %
18.01.2016 09:40 -5,8 C 91 % 1023,7 hPa 0,0 l/m 3,0 km/h (1 Bft) SW 215 5 min 0,000 mm 0,0 UV-I 185 W/m -7,0 C -5,8 C 4,8 km/h (1 Bft) 99,17 %
18.01.2016 09:45 -5,8 C 91 % 1023,6 hPa 0,0 l/m 2,7 km/h (1 Bft) S 190 5 min 0,000 mm 0,0 UV-I 193 W/m -7,0 C -5,8 C 6,4 km/h (2 Bft) 100,00 %
18.01.2016 09:50 -5,6 C 91 % 1023,5 hPa 0,0 l/m 1,8 km/h (1 Bft) S 190 5 min 0,000 mm 0,0 UV-I 204 W/m -6,8 C -5,6 C 4,8 km/h (1 Bft) 99,17 %
18.01.2016 09:55 -5,4 C 91 % 1023,5 hPa 0,0 l/m 3,0 km/h (1 Bft) W-SW 255 5 min 0,000 mm 0,0 UV-I 208 W/m -6,6 C -5,4 C 4,8 km/h (1 Bft) 99,15 %
18.01.2016 10:00 -5,3 C 90 % 1023,5 hPa 0,0 l/m 2,5 km/h (1 Bft) S 175 5 min 0,051 mm 0,0 UV-I 212 W/m -6,7 C -5,3 C 4,8 km/h (1 Bft) 100,00 %
18.01.2016 10:05 -5,3 C 90 % 1023,5 hPa 0,0 l/m 2,9 km/h (1 Bft) S 175 5 min 0,000 mm 0,0 UV-I 217 W/m -6,7 C -5,3 C 4,8 km/h (1 Bft) 98,21 %
18.01.2016 10:10 -5,2 C 90 % 1023,5 hPa 0,0 l/m 3,3 km/h (1 Bft) S 180 5 min 0,000 mm 0,0 UV-I 220 W/m -6,6 C -5,2 C 6,4 km/h (2 Bft) 96,52 %
18.01.2016 10:15 -5,1 C 90 % 1023,5 hPa 0,0 l/m 1,9 km/h (1 Bft) SW 226 5 min 0,000 mm 0,0 UV-I 237 W/m -6,5 C -5,1 C 4,8 km/h (1 Bft) 97,46 %
18.01.2016 10:20 -5,1 C 90 % 1023,4 hPa 0,0 l/m 2,1 km/h (1 Bft) SW 226 5 min 0,000 mm 0,1 UV-I 244 W/m -6,5 C -5,1 C 4,8 km/h (1 Bft) 96,75 %
18.01.2016 10:25 -4,9 C 90 % 1023,4 hPa 0,0 l/m 0,5 km/h (0 Bft) SW 226 5 min 0,000 mm 0,5 UV-I 254 W/m -6,3 C -4,9 C 3,2 km/h (1 Bft) 98,39 %
18.01.2016 10:30 -4,8 C 89 % 1023,4 hPa 0,0 l/m 1,2 km/h (1 Bft) SW 226 5 min 0,000 mm 0,5 UV-I 255 W/m -6,3 C -4,8 C 3,2 km/h (1 Bft) 98,29 %
18.01.2016 10:35 -4,6 C 88 % 1023,3 hPa 0,0 l/m 0,6 km/h (0 Bft) W-NW 285 5 min 0,000 mm 0,5 UV-I 266 W/m -6,3 C -4,6 C 3,2 km/h (1 Bft) 100,00 %
18.01.2016 10:40 -4,6 C 88 % 1023,3 hPa 0,0 l/m 0,5 km/h (0 Bft) W-NW 285 5 min 0,000 mm 0,5 UV-I 263 W/m -6,3 C -4,6 C 1,6 km/h (1 Bft) 98,21 %
18.01.2016 10:45 -4,5 C 88 % 1023,1 hPa 0,0 l/m 0,4 km/h (0 Bft) W-NW 286 5 min 0,000 mm 0,6 UV-I 282 W/m -6,2 C -4,5 C 1,6 km/h (1 Bft) 100,00 %
18.01.2016 10:50 -4,4 C 87 % 1023,0 hPa 0,0 l/m 0,3 km/h (0 Bft) W-NW 286 5 min 0,000 mm 0,6 UV-I 279 W/m -6,2 C -4,4 C 1,6 km/h (1 Bft) 100,00 %
18.01.2016 10:55 -4,3 C 87 % 1023,0 hPa 0,0 l/m 0,5 km/h (0 Bft) W-NW 287 5 min 0,000 mm 0,6 UV-I 292 W/m -6,1 C -4,3 C 3,2 km/h (1 Bft) 99,13 %
18.01.2016 11:00 -4,2 C 87 % 1022,9 hPa 0,0 l/m 0,6 km/h (0 Bft) W-NW 287 5 min 0,076 mm 0,6 UV-I 293 W/m -6,0 C -4,2 C 1,6 km/h (1 Bft) 100,00 %
18.01.2016 11:05 -4,2 C 86 % 1022,8 hPa 0,0 l/m 0,8 km/h (0 Bft) W-NW 287 5 min 0,000 mm 0,6 UV-I 303 W/m -6,2 C -4,2 C 3,2 km/h (1 Bft) 99,11 %
18.01.2016 11:10 -4,3 C 87 % 1022,8 hPa 0,0 l/m 0,6 km/h (0 Bft) W-NW 287 0 min 0,000 mm 0,6 UV-I 186 W/m -6,1 C -4,3 C 3,2 km/h (1 Bft) 96,58 %
18.01.2016 11:15 -4,4 C 87 % 1022,7 hPa 0,0 l/m 1,5 km/h (1 Bft) W-NW 287 0 min 0,000 mm 0,6 UV-I 145 W/m -6,2 C -4,4 C 3,2 km/h (1 Bft) 97,32 %
18.01.2016 11:20 -4,4 C 87 % 1022,6 hPa 0,0 l/m 0,4 km/h (0 Bft) W-NW 287 0 min 0,000 mm 0,6 UV-I 99 W/m -6,2 C -4,4 C 1,6 km/h (1 Bft) 97,58 %
18.01.2016 11:25 -4,2 C 87 % 1022,6 hPa 0,0 l/m 0,6 km/h (0 Bft) W-NW 287 0 min 0,000 mm 0,7 UV-I 175 W/m -6,0 C -4,2 C 1,6 km/h (1 Bft) 97,37 %
18.01.2016 11:30 -4,1 C 86 % 1022,5 hPa 0,0 l/m 2,6 km/h (1 Bft) N-NO 32 5 min 0,000 mm 0,7 UV-I 332 W/m -6,1 C -4,1 C 4,8 km/h (1 Bft) 97,58 %
18.01.2016 11:35 -4,0 C 86 % 1022,5 hPa 0,0 l/m 2,4 km/h (1 Bft) N-NO 32 5 min 0,000 mm 0,7 UV-I 325 W/m -6,0 C -4,0 C 4,8 km/h (1 Bft) 100,00 %
18.01.2016 11:40 -3,7 C 85 % 1022,4 hPa 0,0 l/m 0,8 km/h (0 Bft) N-NW 340 5 min 0,000 mm 0,7 UV-I 336 W/m -5,8 C -3,7 C 3,2 km/h (1 Bft) 99,15 %
18.01.2016 11:45 -3,8 C 85 % 1022,3 hPa 0,0 l/m 1,4 km/h (1 Bft) N 11 5 min 0,000 mm 0,7 UV-I 333 W/m -5,9 C -3,8 C 4,8 km/h (1 Bft) 99,13 %
18.01.2016 11:50 -4,0 C 85 % 1022,2 hPa 0,0 l/m 0,6 km/h (0 Bft) N-NW 331 5 min 0,000 mm 0,7 UV-I 234 W/m -6,1 C -4,0 C 1,6 km/h (1 Bft) 100,00 %
18.01.2016 11:55 -3,8 C 86 % 1022,0 hPa 0,0 l/m 2,3 km/h (1 Bft) N 11 5 min 0,000 mm 0,7 UV-I 342 W/m -5,8 C -3,8 C 4,8 km/h (1 Bft) 99,19 %
18.01.2016 12:00 -3,6 C 85 % 1021,9 hPa 0,0 l/m 1,9 km/h (1 Bft) N-NO 32 5 min 0,076 mm 0,7 UV-I 349 W/m -5,7 C -3,6 C 6,4 km/h (2 Bft) 98,21 %
18.01.2016 12:05 -3,6 C 84 % 1021,9 hPa 0,0 l/m 2,0 km/h (1 Bft) N-NO 24 5 min 0,000 mm 0,7 UV-I 327 W/m -5,9 C -3,6 C 4,8 km/h (1 Bft) 100,00 %
18.01.2016 12:10 -3,4 C 84 % 1021,7 hPa 0,0 l/m 1,8 km/h (1 Bft) N-NO 26 5 min 0,000 mm 0,7 UV-I 325 W/m -5,7 C -3,4 C 4,8 km/h (1 Bft) 98,26 %
18.01.2016 12:15 -3,3 C 84 % 1021,6 hPa 0,0 l/m 2,8 km/h (1 Bft) NO 36 5 min 0,000 mm 0,7 UV-I 329 W/m -5,6 C -3,3 C 4,8 km/h (1 Bft) 98,41 %
18.01.2016 12:20 -3,3 C 83 % 1021,5 hPa 0,0 l/m 3,3 km/h (1 Bft) NO 51 5 min 0,000 mm 0,7 UV-I 293 W/m -5,8 C -3,3 C 6,4 km/h (2 Bft) 97,32 %
18.01.2016 12:25 -3,2 C 84 % 1021,5 hPa 0,0 l/m 4,1 km/h (1 Bft) O-NO 57 5 min 0,000 mm 0,7 UV-I 340 W/m -5,5 C -3,2 C 6,4 km/h (2 Bft) 97,58 %
18.01.2016 12:30 -3,2 C 83 % 1021,4 hPa 0,0 l/m 3,0 km/h (1 Bft) O-NO 57 5 min 0,000 mm 0,7 UV-I 333 W/m -5,7 C -3,2 C 6,4 km/h (2 Bft) 96,40 %
18.01.2016 12:35 -3,4 C 84 % 1021,4 hPa 0,0 l/m 2,1 km/h (1 Bft) O-NO 57 0 min 0,000 mm 0,7 UV-I 195 W/m -5,7 C -3,4 C 4,8 km/h (1 Bft) 98,21 %
18.01.2016 12:40 -3,4 C 84 % 1021,3 hPa 0,0 l/m 4,5 km/h (1 Bft) NO 45 0 min 0,000 mm 0,7 UV-I 124 W/m -5,7 C -3,4 C 11,3 km/h (2 Bft) 100,00 %
18.01.2016 12:45 -3,6 C 85 % 1021,2 hPa 0,0 l/m 6,4 km/h (2 Bft) NO 51 0 min 0,000 mm 0,7 UV-I 107 W/m -5,7 C -3,5 C 9,7 km/h (2 Bft) 99,15 %
18.01.2016 12:50 -3,3 C 85 % 1021,1 hPa 0,0 l/m 4,0 km/h (1 Bft) N-NO 24 5 min 0,000 mm 0,7 UV-I 309 W/m -5,5 C -3,3 C 8,0 km/h (2 Bft) 100,00 %
18.01.2016 12:55 -3,3 C 84 % 1021,0 hPa 0,0 l/m 5,1 km/h (1 Bft) NO 44 5 min 0,000 mm 0,7 UV-I 258 W/m -5,6 C -3,3 C 8,0 km/h (2 Bft) 100,00 %
18.01.2016 13:00 -3,2 C 84 % 1020,8 hPa 0,0 l/m 5,0 km/h (1 Bft) NO 46 5 min 0,076 mm 0,7 UV-I 292 W/m -5,5 C -3,2 C 8,0 km/h (2 Bft) 98,29 %
18.01.2016 13:05 -3,1 C 83 % 1020,7 hPa 0,0 l/m 3,1 km/h (1 Bft) NO 54 5 min 0,000 mm 0,7 UV-I 316 W/m -5,6 C -3,1 C 6,4 km/h (2 Bft) 99,13 %
18.01.2016 13:10 -2,9 C 83 % 1020,6 hPa 0,0 l/m 4,7 km/h (1 Bft) N-NO 30 5 min 0,000 mm 0,7 UV-I 330 W/m -5,4 C -2,9 C 6,4 km/h (2 Bft) 98,41 %
18.01.2016 13:15 -3,0 C 84 % 1020,6 hPa 0,0 l/m 4,5 km/h (1 Bft) NO 45 5 min 0,000 mm 0,7 UV-I 331 W/m -5,3 C -3,0 C 6,4 km/h (2 Bft) 100,00 %
18.01.2016 13:20 -3,0 C 83 % 1020,4 hPa 0,0 l/m 5,4 km/h (1 Bft) N-NO 19 5 min 0,000 mm 0,6 UV-I 316 W/m -5,5 C -3,0 C 11,3 km/h (2 Bft) 100,00 %
18.01.2016 13:25 -3,1 C 84 % 1020,3 hPa 0,0 l/m 6,1 km/h (2 Bft) NO 39 5 min 0,000 mm 0,6 UV-I 302 W/m -5,4 C -3,1 C 11,3 km/h (2 Bft) 98,90 %
18.01.2016 13:30 -2,9 C 83 % 1020,2 hPa 0,0 l/m 6,9 km/h (2 Bft) NO 42 5 min 0,000 mm 0,6 UV-I 278 W/m -5,4 C -3,5 C 11,3 km/h (2 Bft) 97,16 %
18.01.2016 13:35 -2,9 C 83 % 1020,1 hPa 0,0 l/m 4,7 km/h (1 Bft) N-NO 14 5 min 0,000 mm 0,6 UV-I 305 W/m -5,4 C -2,9 C 8,0 km/h (2 Bft) 98,21 %
18.01.2016 13:40 -2,8 C 83 % 1020,1 hPa 0,0 l/m 5,4 km/h (1 Bft) O-NO 69 5 min 0,000 mm 0,6 UV-I 301 W/m -5,3 C -2,8 C 11,3 km/h (2 Bft) 97,56 %
18.01.2016 13:45 -2,6 C 81 % 1019,9 hPa 0,0 l/m 6,3 km/h (2 Bft) NO 41 5 min 0,000 mm 0,6 UV-I 294 W/m -5,4 C -2,6 C 9,7 km/h (2 Bft) 98,21 %
18.01.2016 13:50 -2,6 C 81 % 1019,8 hPa 0,0 l/m 8,4 km/h (2 Bft) NO 56 5 min 0,000 mm 0,5 UV-I 290 W/m -5,4 C -4,8 C 14,5 km/h (3 Bft) 99,17 %
18.01.2016 13:55 -2,5 C 81 % 1019,8 hPa 0,0 l/m 8,8 km/h (2 Bft) O-NO 66 5 min 0,000 mm 0,5 UV-I 285 W/m -5,3 C -5,1 C 14,5 km/h (3 Bft) 99,15 %
18.01.2016 14:00 -2,6 C 81 % 1019,8 hPa 0,0 l/m 10,5 km/h (2 Bft) O-NO 67 5 min 0,000 mm 0,5 UV-I 281 W/m -5,4 C -6,8 C 14,5 km/h (3 Bft) 100,00 %
18.01.2016 14:10 -2,6 C 81 % 1019,6 hPa 0,0 l/m 9,0 km/h (2 Bft) NO 53 10 min 0,102 mm 0,4 UV-I 261 W/m -5,4 C -5,4 C 14,5 km/h (3 Bft) 99,07 %
18.01.2016 14:15 -2,6 C 80 % 1019,6 hPa 0,0 l/m 9,2 km/h (2 Bft) NO 43 5 min 0,000 mm 0,0 UV-I 252 W/m -5,6 C -5,6 C 14,5 km/h (3 Bft) 99,19 %
18.01.2016 14:20 -2,7 C 81 % 1019,6 hPa 0,0 l/m 6,6 km/h (2 Bft) NO 51 5 min 0,000 mm 0,0 UV-I 243 W/m -5,5 C -2,9 C 14,5 km/h (3 Bft) 100,00 %
18.01.2016 14:25 -2,7 C 80 % 1019,6 hPa 0,0 l/m 7,9 km/h (2 Bft) NO 46 5 min 0,000 mm 0,0 UV-I 229 W/m -5,7 C -4,4 C 14,5 km/h (3 Bft) 98,31 %
18.01.2016 14:30 -2,7 C 80 % 1019,5 hPa 0,0 l/m 8,8 km/h (2 Bft) NO 51 5 min 0,000 mm 0,0 UV-I 224 W/m -5,7 C -5,3 C 14,5 km/h (3 Bft) 100,00 %
18.01.2016 14:35 -2,6 C 80 % 1019,4 hPa 0,0 l/m 7,3 km/h (2 Bft) O-NO 65 5 min 0,000 mm 0,0 UV-I 214 W/m -5,6 C -3,6 C 14,5 km/h (3 Bft) 97,52 %
18.01.2016 14:40 -2,6 C 80 % 1019,3 hPa 0,0 l/m 9,9 km/h (2 Bft) O 82 5 min 0,000 mm 0,0 UV-I 209 W/m -5,6 C -6,2 C 14,5 km/h (3 Bft) 97,32 %
18.01.2016 14:45 -2,6 C 79 % 1019,3 hPa 0,0 l/m 9,3 km/h (2 Bft) O-NO 62 5 min 0,000 mm 0,0 UV-I 197 W/m -5,7 C -5,7 C 14,5 km/h (3 Bft) 97,37 %
18.01.2016 14:50 -2,7 C 81 % 1019,2 hPa 0,0 l/m 11,7 km/h (2 Bft) O-NO 67 5 min 0,000 mm 0,0 UV-I 183 W/m -5,5 C -7,9 C 16,1 km/h (3 Bft) 97,64 %
18.01.2016 14:55 -2,7 C 80 % 1019,2 hPa 0,0 l/m 9,5 km/h (2 Bft) O-NO 61 5 min 0,000 mm 0,0 UV-I 172 W/m -5,7 C -6,0 C 14,5 km/h (3 Bft) 94,64 %
18.01.2016 15:00 -2,7 C 81 % 1019,2 hPa 0,0 l/m 8,6 km/h (2 Bft) NO 54 5 min 0,076 mm 0,0 UV-I 165 W/m -5,5 C -5,1 C 14,5 km/h (3 Bft) 99,12 %
18.01.2016 15:05 -2,7 C 80 % 1019,2 hPa 0,0 l/m 8,6 km/h (2 Bft) NO 41 5 min 0,000 mm 0,0 UV-I 154 W/m -5,7 C -5,1 C 14,5 km/h (3 Bft) 99,15 %
18.01.2016 15:10 -2,7 C 80 % 1019,2 hPa 0,0 l/m 7,3 km/h (2 Bft) NO 42 5 min 0,000 mm 0,0 UV-I 141 W/m -5,7 C -3,7 C 11,3 km/h (2 Bft) 98,26 %
18.01.2016 15:15 -2,7 C 80 % 1019,1 hPa 0,0 l/m 9,9 km/h (2 Bft) O-NO 59 5 min 0,000 mm 0,0 UV-I 130 W/m -5,7 C -6,3 C 16,1 km/h (3 Bft) 100,00 %
18.01.2016 15:20 -2,8 C 79 % 1019,1 hPa 0,0 l/m 9,6 km/h (2 Bft) O-NO 65 5 min 0,000 mm 0,0 UV-I 119 W/m -5,9 C -6,2 C 16,1 km/h (3 Bft) 98,43 %
18.01.2016 15:25 -2,8 C 80 % 1019,1 hPa 0,0 l/m 8,5 km/h (2 Bft) O-NO 69 5 min 0,000 mm 0,0 UV-I 110 W/m -5,8 C -5,1 C 12,9 km/h (3 Bft) 100,00 %
18.01.2016 15:30 -2,8 C 79 % 1019,1 hPa 0,0 l/m 9,4 km/h (2 Bft) O-NO 59 5 min 0,000 mm 0,0 UV-I 98 W/m -5,9 C -6,0 C 14,5 km/h (3 Bft) 100,00 %
18.01.2016 15:35 -2,9 C 79 % 1019,1 hPa 0,0 l/m 12,4 km/h (3 Bft) NO 51 5 min 0,000 mm 0,0 UV-I 87 W/m -6,0 C -8,7 C 17,7 km/h (3 Bft) 99,15 %
18.01.2016 15:40 -2,9 C 80 % 1019,0 hPa 0,2 l/m 12,4 km/h (3 Bft) O-NO 59 5 min 0,000 mm 0,0 UV-I 75 W/m -5,9 C -8,7 C 17,7 km/h (3 Bft) 100,00 %
18.01.2016 15:45 -3,0 C 81 % 1019,1 hPa 0,0 l/m 10,0 km/h (2 Bft) O-NO 66 5 min 0,000 mm 0,0 UV-I 66 W/m -5,8 C -6,8 C 16,1 km/h (3 Bft) 100,00 %
18.01.2016 15:50 -3,1 C 80 % 1019,0 hPa 0,0 l/m 9,1 km/h (2 Bft) NO 49 0 min 0,000 mm 0,0 UV-I 57 W/m -6,0 C -6,0 C 14,5 km/h (3 Bft) 99,00 %
18.01.2016 15:55 -3,2 C 80 % 1019,0 hPa 0,0 l/m 10,9 km/h (2 Bft) O-NO 77 0 min 0,000 mm 0,0 UV-I 49 W/m -6,1 C -7,8 C 16,1 km/h (3 Bft) 100,00 %
18.01.2016 16:00 -3,3 C 81 % 1018,9 hPa 0,0 l/m 10,3 km/h (2 Bft) NO 53 0 min 0,051 mm 0,0 UV-I 39 W/m -6,1 C -7,4 C 16,1 km/h (3 Bft) 99,13 %
18.01.2016 16:05 -3,4 C 81 % 1018,9 hPa 0,0 l/m 9,2 km/h (2 Bft) O 91 0 min 0,000 mm 0,0 UV-I 31 W/m -6,2 C -6,4 C 14,5 km/h (3 Bft) 97,25 %
18.01.2016 16:10 -3,5 C 81 % 1018,8 hPa 0,0 l/m 9,5 km/h (2 Bft) O-NO 65 0 min 0,000 mm 0,0 UV-I 24 W/m -6,3 C -6,8 C 14,5 km/h (3 Bft) 97,44 %
18.01.2016 16:15 -3,7 C 81 % 1018,7 hPa 0,0 l/m 8,7 km/h (2 Bft) O 80 0 min 0,000 mm 0,0 UV-I 19 W/m -6,5 C -6,3 C 14,5 km/h (3 Bft) 97,67 %
18.01.2016 16:20 -3,7 C 81 % 1018,7 hPa 0,0 l/m 9,2 km/h (2 Bft) O-NO 78 0 min 0,000 mm 0,0 UV-I 16 W/m -6,5 C -6,8 C 14,5 km/h (3 Bft) 97,14 %
18.01.2016 16:25 -3,8 C 82 % 1018,7 hPa 0,0 l/m 8,2 km/h (2 Bft) NO 40 5 min 0,000 mm 0,0 UV-I 14 W/m -6,4 C -5,9 C 14,5 km/h (3 Bft) 97,58 %
18.01.2016 16:30 -3,9 C 82 % 1018,6 hPa 0,0 l/m 6,7 km/h (2 Bft) O-NO 65 0 min 0,000 mm 0,0 UV-I 11 W/m -6,5 C -4,2 C 11,3 km/h (2 Bft) 96,67 %
18.01.2016 16:35 -3,9 C 83 % 1018,5 hPa 0,0 l/m 6,8 km/h (2 Bft) O-NO 69 0 min 0,000 mm 0,0 UV-I 8 W/m -6,4 C -4,4 C 9,7 km/h (2 Bft) 97,52 %
18.01.2016 16:40 -4,1 C 83 % 1018,6 hPa 0,0 l/m 6,3 km/h (2 Bft) O-NO 57 0 min 0,000 mm 0,0 UV-I 6 W/m -6,5 C -4,1 C 9,7 km/h (2 Bft) 99,13 %
18.01.2016 16:45 -4,2 C 83 % 1018,5 hPa 0,0 l/m 6,6 km/h (2 Bft) O-NO 69 0 min 0,000 mm 0,0 UV-I 2 W/m -6,6 C -4,4 C 11,3 km/h (2 Bft) 99,12 %
18.01.2016 16:50 -4,2 C 84 % 1018,4 hPa 0,0 l/m 5,6 km/h (1 Bft) NO 53 0 min 0,000 mm 0,0 UV-I 0 W/m -6,5 C -4,2 C 9,7 km/h (2 Bft) 99,11 %
18.01.2016 16:55 -4,3 C 84 % 1018,4 hPa 0,0 l/m 5,7 km/h (1 Bft) O-NO 63 0 min 0,000 mm 0,0 UV-I 0 W/m -6,6 C -4,3 C 9,7 km/h (2 Bft) 99,17 %
18.01.2016 17:00 -4,5 C 84 % 1018,4 hPa 0,0 l/m 5,6 km/h (1 Bft) O-NO 78 0 min 0,000 mm 0,0 UV-I 0 W/m -6,8 C -4,5 C 8,0 km/h (2 Bft) 100,00 %
18.01.2016 17:05 -4,6 C 85 % 1018,4 hPa 0,0 l/m 5,9 km/h (2 Bft) O-NO 78 0 min 0,000 mm 0,0 UV-I 0 W/m -6,7 C -4,6 C 8,0 km/h (2 Bft) 98,26 %
18.01.2016 17:10 -4,7 C 85 % 1018,3 hPa 0,0 l/m 6,5 km/h (2 Bft) O 83 0 min 0,000 mm 0,0 UV-I 0 W/m -6,8 C -4,8 C 9,7 km/h (2 Bft) 99,06 %
18.01.2016 17:15 -4,8 C 85 % 1018,3 hPa 0,0 l/m 6,5 km/h (2 Bft) O-NO 78 0 min 0,000 mm 0,0 UV-I 0 W/m -6,9 C -4,9 C 12,9 km/h (3 Bft) 99,20 %
18.01.2016 17:20 -4,8 C 86 % 1018,3 hPa 0,0 l/m 6,1 km/h (2 Bft) O-NO 58 0 min 0,000 mm 0,0 UV-I 0 W/m -6,8 C -4,8 C 9,7 km/h (2 Bft) 100,00 %
18.01.2016 17:25 -4,8 C 86 % 1018,4 hPa 0,0 l/m 5,2 km/h (1 Bft) O 80 0 min 0,000 mm 0,0 UV-I 0 W/m -6,8 C -4,8 C 8,0 km/h (2 Bft) 99,19 %
18.01.2016 17:30 -4,8 C 86 % 1018,5 hPa 0,0 l/m 4,6 km/h (1 Bft) O-NO 61 0 min 0,000 mm 0,0 UV-I 0 W/m -6,8 C -4,8 C 8,0 km/h (2 Bft) 100,00 %
18.01.2016 17:35 -5,0 C 85 % 1018,5 hPa 0,0 l/m 3,1 km/h (1 Bft) O-NO 61 0 min 0,000 mm 0,0 UV-I 0 W/m -7,1 C -5,0 C 4,8 km/h (1 Bft) 99,13 %
18.01.2016 17:40 -5,1 C 87 % 1018,5 hPa 0,0 l/m 4,3 km/h (1 Bft) O-NO 63 0 min 0,000 mm 0,0 UV-I 0 W/m -6,9 C -5,1 C 6,4 km/h (2 Bft) 97,30 %
18.01.2016 17:45 -5,3 C 87 % 1018,6 hPa 0,0 l/m 3,3 km/h (1 Bft) O-NO 67 0 min 0,000 mm 0,0 UV-I 0 W/m -7,1 C -5,3 C 6,4 km/h (2 Bft) 100,00 %
18.01.2016 17:50 -5,3 C 87 % 1018,6 hPa 0,0 l/m 2,7 km/h (1 Bft) O-NO 71 0 min 0,000 mm 0,0 UV-I 0 W/m -7,1 C -5,3 C 4,8 km/h (1 Bft) 98,21 %
18.01.2016 17:55 -5,7 C 87 % 1018,5 hPa 0,0 l/m 2,9 km/h (1 Bft) O-NO 71 0 min 0,000 mm 0,0 UV-I 0 W/m -7,5 C -5,7 C 4,8 km/h (1 Bft) 100,00 %
18.01.2016 18:00 -5,7 C 88 % 1018,5 hPa 0,0 l/m 3,4 km/h (1 Bft) O-NO 66 0 min 0,000 mm 0,0 UV-I 0 W/m -7,4 C -5,7 C 6,4 km/h (2 Bft) 98,39 %
18.01.2016 18:05 -5,6 C 88 % 1018,4 hPa 0,0 l/m 3,5 km/h (1 Bft) NO 56 0 min 0,000 mm 0,0 UV-I 0 W/m -7,3 C -5,6 C 6,4 km/h (2 Bft) 99,12 %
18.01.2016 18:10 -5,6 C 88 % 1018,5 hPa 0,0 l/m 3,0 km/h (1 Bft) O-NO 69 0 min 0,000 mm 0,0 UV-I 0 W/m -7,3 C -5,6 C 6,4 km/h (2 Bft) 96,43 %
18.01.2016 18:15 -5,8 C 88 % 1018,5 hPa 0,0 l/m 3,2 km/h (1 Bft) NO 51 0 min 0,000 mm 0,0 UV-I 0 W/m -7,5 C -5,8 C 6,4 km/h (2 Bft) 96,69 %
18.01.2016 18:20 -6,0 C 88 % 1018,4 hPa 0,0 l/m 3,9 km/h (1 Bft) O-NO 59 0 min 0,000 mm 0,0 UV-I 0 W/m -7,7 C -6,0 C 6,4 km/h (2 Bft) 98,33 %
18.01.2016 18:25 -5,9 C 89 % 1018,4 hPa 0,0 l/m 3,9 km/h (1 Bft) O-NO 59 0 min 0,000 mm 0,0 UV-I 0 W/m -7,4 C -5,9 C 6,4 km/h (2 Bft) 96,33 %
18.01.2016 18:30 -5,8 C 88 % 1018,4 hPa 0,0 l/m 4,8 km/h (1 Bft) O-NO 58 0 min 0,000 mm 0,0 UV-I 0 W/m -7,5 C -5,8 C 6,4 km/h (2 Bft) 96,83 %
18.01.2016 18:35 -5,9 C 88 % 1018,3 hPa 0,0 l/m 4,6 km/h (1 Bft) NO 55 0 min 0,000 mm 0,0 UV-I 0 W/m -7,6 C -5,9 C 8,0 km/h (2 Bft) 96,43 %
18.01.2016 18:40 -5,9 C 89 % 1018,3 hPa 0,0 l/m 4,9 km/h (1 Bft) NO 51 0 min 0,000 mm 0,0 UV-I 0 W/m -7,4 C -5,9 C 8,0 km/h (2 Bft) 98,31 %
18.01.2016 18:45 -5,8 C 89 % 1018,4 hPa 0,0 l/m 5,8 km/h (2 Bft) NO 42 0 min 0,000 mm 0,0 UV-I 0 W/m -7,3 C -5,8 C 8,0 km/h (2 Bft) 99,12 %
18.01.2016 18:50 -5,8 C 89 % 1018,3 hPa 0,0 l/m 7,3 km/h (2 Bft) O-NO 69 0 min 0,000 mm 0,0 UV-I 0 W/m -7,3 C -6,9 C 11,3 km/h (2 Bft) 98,31 %
18.01.2016 18:55 -5,8 C 89 % 1018,3 hPa 0,0 l/m 7,5 km/h (2 Bft) O-NO 57 0 min 0,000 mm 0,0 UV-I 0 W/m -7,3 C -7,1 C 11,3 km/h (2 Bft) 99,17 %
18.01.2016 19:00 -5,8 C 88 % 1018,2 hPa 0,0 l/m 9,2 km/h (2 Bft) NO 55 0 min 0,000 mm 0,0 UV-I 0 W/m -7,5 C -9,0 C 14,5 km/h (3 Bft) 98,33 %
18.01.2016 19:05 -5,9 C 88 % 1018,2 hPa 0,0 l/m 9,8 km/h (2 Bft) O-NO 70 0 min 0,000 mm 0,0 UV-I 0 W/m -7,6 C -9,8 C 17,7 km/h (3 Bft) 100,00 %
18.01.2016 19:10 -5,9 C 88 % 1018,2 hPa 0,0 l/m 11,8 km/h (2 Bft) O-NO 67 0 min 0,000 mm 0,0 UV-I 0 W/m -7,6 C -11,6 C 17,7 km/h (3 Bft) 98,37 %
18.01.2016 19:15 -5,9 C 88 % 1018,1 hPa 0,0 l/m 11,3 km/h (2 Bft) O-NO 74 0 min 0,000 mm 0,0 UV-I 0 W/m -7,6 C -11,2 C 19,3 km/h (3 Bft) 100,00 %
18.01.2016 19:20 -5,8 C 88 % 1018,1 hPa 0,0 l/m 11,5 km/h (2 Bft) O-NO 65 0 min 0,000 mm 0,0 UV-I 0 W/m -7,5 C -11,2 C 17,7 km/h (3 Bft) 99,11 %
18.01.2016 19:25 -5,8 C 88 % 1018,1 hPa 0,0 l/m 12,5 km/h (3 Bft) NO 51 0 min 0,000 mm 0,0 UV-I 0 W/m -7,5 C -12,1 C 19,3 km/h (3 Bft) 100,00 %
18.01.2016 19:30 -5,7 C 88 % 1018,2 hPa 0,0 l/m 13,1 km/h (3 Bft) NO 51 0 min 0,000 mm 0,0 UV-I 0 W/m -7,4 C -12,5 C 25,7 km/h (4 Bft) 97,52 %
18.01.2016 19:35 -5,7 C 88 % 1018,2 hPa 0,0 l/m 13,3 km/h (3 Bft) O-NO 74 0 min 0,000 mm 0,0 UV-I 0 W/m -7,4 C -12,6 C 19,3 km/h (3 Bft) 100,00 %
18.01.2016 19:40 -5,7 C 88 % 1018,2 hPa 0,0 l/m 13,1 km/h (3 Bft) O-NO 73 0 min 0,000 mm 0,0 UV-I 0 W/m -7,4 C -12,5 C 17,7 km/h (3 Bft) 100,00 %
18.01.2016 19:45 -5,7 C 88 % 1018,3 hPa 0,0 l/m 13,4 km/h (3 Bft) O 79 0 min 0,000 mm 0,0 UV-I 0 W/m -7,4 C -12,7 C 19,3 km/h (3 Bft) 98,41 %
18.01.2016 19:50 -5,7 C 88 % 1018,3 hPa 0,0 l/m 14,0 km/h (3 Bft) O-NO 74 0 min 0,000 mm 0,0 UV-I 0 W/m -7,4 C -13,2 C 20,9 km/h (4 Bft) 98,17 %
18.01.2016 19:55 -5,6 C 89 % 1018,2 hPa 0,0 l/m 13,5 km/h (3 Bft) O-NO 59 0 min 0,000 mm 0,0 UV-I 0 W/m -7,1 C -12,7 C 22,5 km/h (4 Bft) 99,21 %
18.01.2016 20:00 -5,6 C 89 % 1018,3 hPa 0,0 l/m 15,3 km/h (3 Bft) O-NO 77 0 min 0,000 mm 0,0 UV-I 0 W/m -7,1 C -14,0 C 24,1 km/h (4 Bft) 100,00 %
18.01.2016 20:05 -5,7 C 88 % 1018,3 hPa 0,0 l/m 12,3 km/h (3 Bft) O-NO 60 0 min 0,000 mm 0,0 UV-I 0 W/m -7,4 C -11,8 C 20,9 km/h (4 Bft) 98,29 %
18.01.2016 20:10 -5,7 C 88 % 1018,3 hPa 0,0 l/m 11,2 km/h (2 Bft) O-NO 64 0 min 0,000 mm 0,0 UV-I 0 W/m -7,4 C -10,9 C 17,7 km/h (3 Bft) 99,11 %
18.01.2016 20:15 -5,8 C 88 % 1018,3 hPa 0,0 l/m 9,5 km/h (2 Bft) NO 53 0 min 0,000 mm 0,0 UV-I 0 W/m -7,5 C -9,4 C 16,1 km/h (3 Bft) 97,58 %
18.01.2016 20:20 -5,9 C 88 % 1018,3 hPa 0,0 l/m 10,5 km/h (2 Bft) O-NO 67 0 min 0,000 mm 0,0 UV-I 0 W/m -7,6 C -10,4 C 17,7 km/h (3 Bft) 96,40 %
18.01.2016 20:25 -6,0 C 88 % 1018,3 hPa 0,0 l/m 9,3 km/h (2 Bft) O-NO 59 0 min 0,000 mm 0,0 UV-I 0 W/m -7,7 C -9,4 C 19,3 km/h (3 Bft) 97,52 %
18.01.2016 20:30 -6,2 C 88 % 1018,3 hPa 0,0 l/m 6,8 km/h (2 Bft) O-NO 59 0 min 0,000 mm 0,0 UV-I 0 W/m -7,9 C -6,7 C 9,7 km/h (2 Bft) 97,50 %
18.01.2016 20:35 -6,3 C 89 % 1018,2 hPa 0,0 l/m 4,4 km/h (1 Bft) O-NO 60 0 min 0,000 mm 0,0 UV-I 0 W/m -7,8 C -6,3 C 8,0 km/h (2 Bft) 96,33 %
18.01.2016 20:40 -6,4 C 89 % 1018,3 hPa 0,0 l/m 5,1 km/h (1 Bft) O-NO 57 0 min 0,000 mm 0,0 UV-I 0 W/m -7,9 C -6,4 C 8,0 km/h (2 Bft) 97,54 %
18.01.2016 20:45 -6,6 C 89 % 1018,2 hPa 0,0 l/m 5,1 km/h (1 Bft) O-NO 67 0 min 0,000 mm 0,0 UV-I 0 W/m -8,1 C -6,6 C 8,0 km/h (2 Bft) 95,45 %
18.01.2016 20:50 -6,7 C 90 % 1018,1 hPa 0,0 l/m 6,5 km/h (2 Bft) O-NO 62 0 min 0,000 mm 0,0 UV-I 0 W/m -8,1 C -6,8 C 9,7 km/h (2 Bft) 98,55 %
18.01.2016 20:55 -6,7 C 90 % 1018,2 hPa 0,0 l/m 6,4 km/h (2 Bft) O-NO 57 0 min 0,000 mm 0,0 UV-I 0 W/m -8,1 C -6,6 C 8,0 km/h (2 Bft) 99,19 %
18.01.2016 21:00 -6,9 C 89 % 1018,2 hPa 0,0 l/m 4,7 km/h (1 Bft) O-NO 57 0 min 0,000 mm 0,0 UV-I 0 W/m -8,4 C -6,9 C 8,0 km/h (2 Bft) 98,29 %
18.01.2016 21:05 -7,1 C 90 % 1018,3 hPa 0,0 l/m 4,8 km/h (1 Bft) NO 50 0 min 0,000 mm 0,0 UV-I 0 W/m -8,5 C -7,1 C 6,4 km/h (2 Bft) 100,00 %
18.01.2016 21:10 -7,2 C 91 % 1018,3 hPa 0,0 l/m 4,2 km/h (1 Bft) O-NO 62 0 min 0,000 mm 0,0 UV-I 0 W/m -8,4 C -7,2 C 6,4 km/h (2 Bft) 99,19 %
18.01.2016 21:15 -7,0 C 91 % 1018,3 hPa 0,0 l/m 6,4 km/h (2 Bft) O-NO 65 0 min 0,000 mm 0,0 UV-I 0 W/m -8,2 C -6,9 C 11,3 km/h (2 Bft) 99,13 %
18.01.2016 21:20 -7,0 C 91 % 1018,3 hPa 0,0 l/m 6,7 km/h (2 Bft) NO 51 0 min 0,000 mm 0,0 UV-I 0 W/m -8,2 C -7,4 C 9,7 km/h (2 Bft) 99,19 %
18.01.2016 21:25 -7,1 C 90 % 1018,3 hPa 0,0 l/m 5,9 km/h (2 Bft) O-NO 65 0 min 0,000 mm 0,0 UV-I 0 W/m -8,5 C -7,1 C 8,0 km/h (2 Bft) 98,29 %
18.01.2016 21:30 -7,1 C 90 % 1018,3 hPa 0,0 l/m 5,8 km/h (2 Bft) O-NO 75 0 min 0,000 mm 0,0 UV-I 0 W/m -8,5 C -7,1 C 9,7 km/h (2 Bft) 100,00 %
18.01.2016 21:35 -7,2 C 91 % 1018,3 hPa 0,0 l/m 5,3 km/h (1 Bft) O-NO 61 0 min 0,000 mm 0,0 UV-I 0 W/m -8,4 C -7,2 C 8,0 km/h (2 Bft) 100,00 %
18.01.2016 21:40 -7,4 C 90 % 1018,4 hPa 0,0 l/m 4,0 km/h (1 Bft) NO 36 0 min 0,000 mm 0,0 UV-I 0 W/m -8,8 C -7,4 C 6,4 km/h (2 Bft) 100,00 %
18.01.2016 21:45 -7,3 C 91 % 1018,4 hPa 0,0 l/m 3,9 km/h (1 Bft) O-NO 57 0 min 0,000 mm 0,0 UV-I 0 W/m -8,5 C -7,3 C 6,4 km/h (2 Bft) 99,09 %
18.01.2016 21:50 -7,3 C 91 % 1018,4 hPa 0,0 l/m 3,4 km/h (1 Bft) O-NO 65 0 min 0,000 mm 0,0 UV-I 0 W/m -8,5 C -7,3 C 6,4 km/h (2 Bft) 100,00 %
18.01.2016 21:55 -7,2 C 91 % 1018,3 hPa 0,0 l/m 4,9 km/h (1 Bft) O-NO 61 0 min 0,000 mm 0,0 UV-I 0 W/m -8,4 C -7,2 C 8,0 km/h (2 Bft) 99,21 %
18.01.2016 22:00 -7,3 C 91 % 1018,4 hPa 0,0 l/m 5,4 km/h (1 Bft) O-NO 57 0 min 0,000 mm 0,0 UV-I 0 W/m -8,5 C -7,3 C 8,0 km/h (2 Bft) 100,00 %
18.01.2016 22:05 -7,3 C 91 % 1018,3 hPa 0,0 l/m 5,3 km/h (1 Bft) O-NO 69 0 min 0,000 mm 0,0 UV-I 0 W/m -8,5 C -7,3 C 8,0 km/h (2 Bft) 99,15 %
18.01.2016 22:10 -7,3 C 91 % 1018,2 hPa 0,0 l/m 5,5 km/h (1 Bft) O-NO 62 0 min 0,000 mm 0,0 UV-I 0 W/m -8,5 C -7,3 C 8,0 km/h (2 Bft) 99,13 %
18.01.2016 22:15 -7,3 C 92 % 1018,2 hPa 0,0 l/m 5,6 km/h (1 Bft) O-NO 59 0 min 0,000 mm 0,0 UV-I 0 W/m -8,4 C -7,3 C 8,0 km/h (2 Bft) 100,00 %
18.01.2016 22:20 -7,3 C 92 % 1018,2 hPa 0,0 l/m 6,6 km/h (2 Bft) O-NO 78 0 min 0,000 mm 0,0 UV-I 0 W/m -8,4 C -7,5 C 9,7 km/h (2 Bft) 96,40 %
18.01.2016 22:25 -7,5 C 92 % 1018,2 hPa 0,0 l/m 5,1 km/h (1 Bft) O-NO 74 0 min 0,000 mm 0,0 UV-I 0 W/m -8,6 C -7,5 C 8,0 km/h (2 Bft) 97,46 %
18.01.2016 22:30 -7,6 C 92 % 1018,2 hPa 0,0 l/m 5,2 km/h (1 Bft) O-NO 61 0 min 0,000 mm 0,0 UV-I 0 W/m -8,7 C -7,6 C 8,0 km/h (2 Bft) 97,46 %
18.01.2016 22:35 -7,7 C 92 % 1018,2 hPa 0,0 l/m 4,9 km/h (1 Bft) O-NO 57 0 min 0,000 mm 0,0 UV-I 0 W/m -8,8 C -7,7 C 8,0 km/h (2 Bft) 97,50 %
18.01.2016 22:40 -7,8 C 92 % 1018,2 hPa 0,0 l/m 3,7 km/h (1 Bft) O-NO 74 0 min 0,000 mm 0,0 UV-I 0 W/m -8,9 C -7,8 C 6,4 km/h (2 Bft) 98,35 %
18.01.2016 22:45 -7,8 C 92 % 1018,3 hPa 0,0 l/m 3,9 km/h (1 Bft) O-NO 74 0 min 0,000 mm 0,0 UV-I 0 W/m -8,9 C -7,8 C 6,4 km/h (2 Bft) 93,69 %
18.01.2016 22:50 -7,8 C 92 % 1018,2 hPa 0,0 l/m 4,1 km/h (1 Bft) O 79 0 min 0,000 mm 0,0 UV-I 0 W/m -8,9 C -7,8 C 6,4 km/h (2 Bft) 97,46 %
18.01.2016 22:55 -7,9 C 93 % 1018,2 hPa 0,0 l/m 3,1 km/h (1 Bft) O 84 0 min 0,000 mm 0,0 UV-I 0 W/m -8,8 C -7,9 C 4,8 km/h (1 Bft) 99,15 %
18.01.2016 23:00 -7,8 C 93 % 1018,3 hPa 0,0 l/m 2,5 km/h (1 Bft) O-NO 75 0 min 0,000 mm 0,0 UV-I 0 W/m -8,7 C -7,8 C 4,8 km/h (1 Bft) 98,25 %
18.01.2016 23:05 -7,9 C 92 % 1018,3 hPa 0,0 l/m 1,9 km/h (1 Bft) O 82 0 min 0,000 mm 0,0 UV-I 0 W/m -9,0 C -7,9 C 4,8 km/h (1 Bft) 98,31 %
18.01.2016 23:10 -8,2 C 92 % 1018,2 hPa 0,0 l/m 3,7 km/h (1 Bft) O 88 0 min 0,000 mm 0,0 UV-I 0 W/m -9,3 C -8,2 C 6,4 km/h (2 Bft) 98,33 %
18.01.2016 23:15 -8,0 C 93 % 1018,2 hPa 0,0 l/m 3,6 km/h (1 Bft) O 79 0 min 0,000 mm 0,0 UV-I 0 W/m -8,9 C -8,0 C 4,8 km/h (1 Bft) 98,31 %
18.01.2016 23:20 -7,9 C 93 % 1018,3 hPa 0,0 l/m 4,2 km/h (1 Bft) O-NO 78 0 min 0,000 mm 0,0 UV-I 0 W/m -8,8 C -7,9 C 6,4 km/h (2 Bft) 100,00 %
18.01.2016 23:25 -7,8 C 93 % 1018,3 hPa 0,0 l/m 4,1 km/h (1 Bft) O-NO 70 0 min 0,000 mm 0,0 UV-I 0 W/m -8,7 C -7,8 C 6,4 km/h (2 Bft) 100,00 %
18.01.2016 23:30 -7,8 C 93 % 1018,2 hPa 0,0 l/m 4,9 km/h (1 Bft) O-NO 73 0 min 0,000 mm 0,0 UV-I 0 W/m -8,7 C -7,8 C 8,0 km/h (2 Bft) 100,00 %
18.01.2016 23:35 -7,9 C 93 % 1018,1 hPa 0,0 l/m 6,5 km/h (2 Bft) O-NO 74 0 min 0,000 mm 0,0 UV-I 0 W/m -8,8 C -8,0 C 8,0 km/h (2 Bft) 99,17 %
18.01.2016 23:40 -8,0 C 93 % 1018,2 hPa 0,0 l/m 7,0 km/h (2 Bft) O-NO 60 0 min 0,000 mm 0,0 UV-I 0 W/m -8,9 C -8,8 C 11,3 km/h (2 Bft) 99,11 %
18.01.2016 23:45 -8,0 C 93 % 1018,2 hPa 0,0 l/m 6,5 km/h (2 Bft) O-NO 63 0 min 0,000 mm 0,0 UV-I 0 W/m -8,9 C -8,1 C 9,7 km/h (2 Bft) 99,17 %
18.01.2016 23:50 -8,1 C 93 % 1018,2 hPa 0,0 l/m 6,6 km/h (2 Bft) O-NO 67 0 min 0,000 mm 0,0 UV-I 0 W/m -9,0 C -8,3 C 9,7 km/h (2 Bft) 100,00 %
18.01.2016 23:55 -8,1 C 93 % 1018,2 hPa 0,0 l/m 5,9 km/h (2 Bft) O-NO 66 0 min 0,000 mm 0,0 UV-I 0 W/m -9,0 C -8,1 C 8,0 km/h (2 Bft) 100,00 %
_ Min-Zeit 23:10 14:45 19:15 - 08:25 - - - - - - 23:10 20:00 08:25 22:45
Minimum _ -8,2 C 79 % 1018,1 hPa - 0,1 km/h (0 Bft) - - - - - - -9,3 C -14,0 C 1,6 km/h (1 Bft) 93,69 %
_ Max-Zeit 13:55 08:25 02:35 15:40 20:00 - - 14:10 14:10 11:25 12:00 00:45 13:45 19:30 00:05
Maximum _ -2,5 C 95 % 1024,0 hPa 0,2 l/m 15,3 km/h
O-NO (3 Bft)
- - 10 min 0,102 mm 0,7 UV-I 349 W/m -4,5 C -2,6 C 25,7 km/h
O-NO (4 Bft)
100,00 %
Durchschnitt _ -5,0 C 88 % 1021,2 hPa #0,2 l/m 5,6 km/h (1 Bft) O-NO - #6:35 h #0,508 mm 0,6 UV-I 180 W/m -6,6 C -5,9 C 9,5 km/h (2 Bft) 98,60 %